Regional Weather Roundup
Issued by NWS

Home | Current Version | Previous Version | Text Only | Print | Product List | Glossary On
Versions: 1 2 3 4 5 6 7 8 9 10 11 12 13 14 15 16 17 18 19 20 21 22 23 24 25 26 27 28 29 30 31 32 33 34 35 36 37 38 39 40 41 42 43 44 45 46 47 48 49 50
000
ASUS43 KMPX 282010
RWRMN
WEATHER ROUNDUP FOR MINNESOTA
NATIONAL WEATHER SERVICE TWIN CITIES/CHANHASSEN MN
300 PM CDT MON JUL 28 2014


NOTE: "FAIR" INDICATES FEW OR NO CLOUDS BELOW 12,000 FEET WITH NO
SIGNIFICANT WEATHER AND/OR OBSTRUCTIONS TO VISIBILITY. N/A MEANS
CURRENT SKY AND/OR WEATHER CONDITIONS ARE NOT AVAILABLE.

MNZ060>063-068>070-282100-
   Twin Cities Metro

CITY           SKY/WX    TMP DP  RH WIND       PRES   REMARKS
TWIN CITIES    PTSUNNY   75  49  39 N8G21     30.17F
ST PAUL        SUNNY     76  50  40 N10G17    30.17F
CRYSTAL        MOSUNNY   77  51  40 N9        30.16F
BLAINE         MOSUNNY   75  54  46 N7G16     30.18S
LAKEVILLE      PTSUNNY   70  52  52 N7        30.18S
EDEN PRAIRIE   PTSUNNY   74  54  49 N7        30.17F
SOUTH ST PAUL  SUNNY     75  47  36 CALM      30.17S
LAKE ELMO      FAIR      73  52  46 N7        30.18F
$$
MNZ001>005-007-008-013>017-022>024-027-028-282100-
   Northwest Minnesota

CITY           SKY/WX    TMP DP  RH WIND       PRES   REMARKS
BEMIDJI        PTSUNNY   70  50  48 N10G17    30.22S
HALLOCK        MOSUNNY   73  52  46 N3        30.23S
ROSEAU         SUNNY     73  55  53 NW5       30.21S
WARROAD        MOSUNNY   73  57  56 NW6       30.21S
THIEF RVR FALL MOSUNNY   72  52  49 NW7       30.24S
CROOKSTON      SUNNY     72  55  56 NW9       30.24F
FOSSTON        MOSUNNY   72  55  56 NW10      30.24S
DETROIT LAKES  SUNNY     72  50  46 N7        30.25S
MOORHEAD       PTSUNNY   72  54  53 NW7       30.25S
PARK RAPIDS    MOSUNNY   72  50  45 NW12      30.21F
$$
MNZ006-009>011-018-025>026-282100-
   North Central Minnesota

CITY           SKY/WX    TMP DP  RH WIND       PRES   REMARKS
BAUDETTE       SUNNY     74  54  49 NW12      30.21S
FLAG ISLAND    SUNNY     73  52  46 N12       30.19S
INTL FALLS     MOSUNNY   76  55  48 NW8       30.16F
WASKISH        MOSUNNY   73  55  53 CALM      30.20R
BIG FORK       MOSUNNY   75  52  43 N3        30.18F
LONGVILLE      PTSUNNY   72  54  53 W7        30.20S
GRAND RAPIDS   MOSUNNY   72  52  49 N13       30.19S
CRANE LAKE     MOSUNNY   72  54  53 NW10      30.16S
ORR            PTSUNNY   70  52  52 NW5       30.14S
COOK           PTSUNNY   72  52  49 NW8       30.16S
$$
MNZ012-019>021-037-282100-
   Northeast Minnesota

CITY           SKY/WX    TMP DP  RH WIND       PRES   REMARKS
DULUTH         MOSUNNY   74  52  46 NW14      30.15F
ELY            MOSUNNY   72  54  53 W7        30.13F
HIBBING        MOSUNNY   75  51  43 N9        30.16F
EVELETH        MOSUNNY   72  52  49 N8        30.17S
DULUTH HARBOR  SUNNY     75  52  43 NW9       30.14S
TWO HARBORS    PTSUNNY   73  54  49 NW8       30.10F
SILVER BAY     SUNNY     72  57  60 W3        30.10S
GRAND MARAIS     N/A     76  56  49 NW7       30.05F
G MARAIS ARPRT PTSUNNY   66  52  59 NW10G17   30.10F
$$
MNZ029>031-032-039>041-046>048-054>057-064-282100-
   West Central Minnesota

CITY           SKY/WX    TMP DP  RH WIND       PRES   REMARKS
FERGUS FALLS   MOSUNNY   72  48  43 N9        30.23F
WHEATON        PTSUNNY   68  52  56 NW10      30.27S
MORRIS         MOSUNNY   73  54  49 N8G16     30.23F
ALEXANDRIA     PTSUNNY   73  49  42 NW13      30.24F
ELBOW LAKE     PTSUNNY   69  53  56 N9        30.24S
WADENA         MOSUNNY   72  54  53 NW7       30.22S
GLENWOOD       MOSUNNY   73  52  46 N7        30.23F
APPLETON       CLOUDY    73  48  40 N13       30.23F
BENSON         CLOUDY    73  54  49 N9G21     30.23F
ORTONVILLE     CLOUDY    72  50  46 N9        30.25S
MADISON        MOSUNNY   73  54  49 N13       30.25S
WILLMAR        FAIR      73  48  40 N10       30.23F
$$
MNZ033>034-036-042>043-049>051-058-059-282100-
   Central Minnesota

CITY           SKY/WX    TMP DP  RH WIND       PRES   REMARKS
ST CLOUD       PTSUNNY   77  53  43 NW13      30.18F
SAUK CENTRE    CLOUDY    71  51  47 N9        30.22S
PAYNESVILLE    MOSUNNY   73  49  41 W8        30.21F
AITKIN         MOSUNNY   75  54  46 N9        30.17F
PINE RIVER     MOSUNNY   73  54  49 N14       30.22F
BRAINERD       MOSUNNY   73  52  47 N12       30.19F
STAPLES        MOSUNNY   73  52  46 NW13      30.21S
LONG PRAIRIE   PTSUNNY   72  54  53 NW9       30.22S
LITTLE FALLS   MOSUNNY   70  50  49 N6        30.20S
LITCHFIELD     PTSUNNY   73  54  49 N14       30.21S
BUFFALO        PTSUNNY   74  51  43 N9G16     30.19F
MAPLE LAKE     PTSUNNY   72  56  57 NW5       30.20F
$$
MNZ037-044-045-052-053-282100-
   East Central Minnesota

CITY           SKY/WX    TMP DP  RH WIND       PRES   REMARKS
PRINCETON      MOSUNNY   77  52  41 NW5G16    30.18F
MORA           MOSUNNY   72  52  49 N3        30.19S
CAMBRIDGE      SUNNY     77  55  47 NW10      30.16S
RUSH CITY      MOSUNNY   72  53  50 N5        30.18S
MOOSE LAKE     MOSUNNY   73  50  43 N6        30.15F
HINCKLEY       FAIR      73  54  49 NW5       30.16F
CLOQUET        PTSUNNY   73  48  40 NW12      30.17S
MCGREGOR       PTSUNNY   72  52  49 N6        30.18F
$$
MNZ071>073-080-081-089-090-097-098-282100-
   Southwest Minnesota

CITY           SKY/WX    TMP DP  RH WIND       PRES   REMARKS
MONTEVIDEO     CLOUDY    73  55  53 NE10      30.25R
GRANITE FALLS  CLOUDY    72  54  53 N8        30.25S
CANBY          CLOUDY    71  52  51 N8        30.26S
MARSHALL       CLOUDY    72  54  53 N14       30.24R
REDWOOD FALLS  PTSUNNY   75  51  43 N6        30.22S
OLIVIA         MOSUNNY   73  50  43 N9        30.21S
PIPESTONE      PTSUNNY   72  52  49 N6        30.26S
WINDOM         PTSUNNY   72  55  56 N9        30.23S
WORTHINGTON    PTSUNNY   70  54  56 N9        30.25S
JACKSON        CLOUDY    70  52  52 CALM      30.23F
TRACY          PTSUNNY   72  56  57 N12       30.24S
SLAYTON        PTSUNNY   70  54  55 CALM      30.26S
$$
MNZ065>067-074>077-082>085-091>093-282100-
   South Central Minnesota

CITY           SKY/WX    TMP DP  RH WIND       PRES   REMARKS
MANKATO        PTSUNNY   72  50  46 NW13      30.20S
NEW ULM        MOSUNNY   72  52  49 N6        30.20F
ST JAMES       PTSUNNY   73  52  46 NW8       30.23S
FAIRMONT       CLOUDY    73  54  49 N6        30.21F
GLENCOE        SUNNY     75  50  42 NW12      30.19F
FARIBAULT      MOSUNNY   77  45  31 N8        30.19S
OWATONNA       PTSUNNY   72  52  49 NW9       30.19S
WASECA         CLOUDY    72  50  46 N6        30.21S
ALBERT LEA     PTSUNNY   72  52  49 N10       30.19F
$$
MNZ078>079-086>088-094>096-282100-
   Southeast Minnesota

CITY           SKY/WX    TMP DP  RH WIND       PRES   REMARKS
ROCHESTER      CLOUDY    71  52  50 NW10      30.19S
RED WING       PTSUNNY   75  48  38 NW5       30.15F
STANTON        PTSUNNY   74  50  42 NW7       30.17F
DODGE CENTER   MOSUNNY   70  54  56 N6        30.19S
WINONA         CLOUDY    73  50  43 N7        30.16F
AUSTIN         MOSUNNY   73  50  43 NW10G16   30.19S
PRESTON        CLOUDY    67  58  71 N6        30.19S
$$
ABBREVIATIONS USED IN REMARKS
   TC - TEMPERATURES IN CELSIUS
  WCI - WIND CHILL INDEX
   HX - HEAT INDEX
  VSB - VISIBILITY
$$


USA.gov is the U.S. government's official web portal to all federal, state and local government web resources and services.